TKJ4AN UGTB-LTAC

Flight info

Callsign TKJ4AN
Flight time 1h 29m
Altitude 36000
Route ZAGOT DCT NOLGA UN61 TBN UW71 ILHAN
Aircraft A320/M-SDE3FGHIRWY/LB1

Departure

Time 2026-04-28 19:28
Airport Tbilisi International Airport (UGTB)

Arrival

Time 2026-04-28 20:57
Airport Esenboğa International Airport (LTAC)
Time Latitude Longitude Altitude Speed Heading
2026-04-28 19:14 41.66863 44.96396 1527 ft 0 kts 43°
2026-04-28 19:19 41.66856 44.96387 1519 ft 4 kts 44°
2026-04-28 19:20 41.66837 44.96362 1519 ft 4 kts 45°
2026-04-28 19:20 41.66822 44.96342 1520 ft 4 kts 35°
2026-04-28 19:20 41.66799 44.96330 1522 ft 4 kts 347°
2026-04-28 19:20 41.66785 44.96339 1522 ft 0 kts 314°
2026-04-28 19:23 41.66802 44.96316 1520 ft 12 kts 314°
2026-04-28 19:23 41.66896 44.96185 1525 ft 20 kts 307°
2026-04-28 19:23 41.66976 44.96061 1521 ft 17 kts 312°
2026-04-28 19:24 41.67063 44.95927 1520 ft 18 kts 299°
2026-04-28 19:24 41.67146 44.95788 1522 ft 21 kts 314°
2026-04-28 19:24 41.67257 44.95634 1522 ft 25 kts 314°
2026-04-28 19:24 41.67378 44.95466 1523 ft 26 kts 313°
2026-04-28 19:25 41.67489 44.95296 1523 ft 21 kts 312°
2026-04-28 19:25 41.67594 44.95141 1524 ft 24 kts 313°
2026-04-28 19:25 41.67660 44.94978 1519 ft 20 kts 255°
2026-04-28 19:25 41.67617 44.94787 1521 ft 24 kts 253°
2026-04-28 19:26 41.67572 44.94602 1521 ft 20 kts 251°
2026-04-28 19:26 41.67549 44.94505 1524 ft 0 kts 252°
2026-04-28 19:26 41.67548 44.94502 1524 ft 2 kts 252°
2026-04-28 19:26 41.67538 44.94458 1523 ft 7 kts 252°
2026-04-28 19:27 41.67488 44.94404 1523 ft 11 kts 175°
2026-04-28 19:27 41.67457 44.94431 1525 ft 0 kts 137°
2026-04-28 19:27 41.67305 44.94625 1524 ft 73 kts 136°
2026-04-28 19:27 41.66756 44.95313 1522 ft 142 kts 136°
2026-04-28 19:28 41.65921 44.96367 1777 ft 178 kts 137°
2026-04-28 19:28 41.64952 44.97571 2301 ft 205 kts 136°
2026-04-28 19:28 41.63848 44.98937 2494 ft 223 kts 137°
2026-04-28 19:28 41.62756 45.00289 2979 ft 212 kts 136°
2026-04-28 19:29 41.61656 45.01638 3669 ft 217 kts 136°
2026-04-28 19:29 41.60898 45.02559 4099 ft 218 kts 139°
2026-04-28 19:29 41.59010 45.03392 4953 ft 229 kts 187°
2026-04-28 19:29 41.57563 45.02457 5597 ft 239 kts 219°
2026-04-28 19:30 41.56590 45.00634 6239 ft 247 kts 247°
2026-04-28 19:30 41.56291 44.98343 6909 ft 256 kts 263°
2026-04-28 19:30 41.56151 44.95928 7536 ft 266 kts 264°
2026-04-28 19:30 41.56009 44.93416 8170 ft 276 kts 264°
2026-04-28 19:31 41.55861 44.90819 8821 ft 285 kts 265°
2026-04-28 19:31 41.55708 44.88144 9483 ft 292 kts 265°
2026-04-28 19:31 41.55549 44.85433 10216 ft 296 kts 265°
2026-04-28 19:31 41.55381 44.82616 10552 ft 315 kts 264°
2026-04-28 19:32 41.55201 44.79595 10696 ft 338 kts 264°
2026-04-28 19:32 41.55009 44.76370 10907 ft 356 kts 265°
2026-04-28 19:32 41.54811 44.73043 11459 ft 362 kts 265°
2026-04-28 19:32 41.54610 44.69682 12108 ft 364 kts 265°
2026-04-28 19:33 41.54403 44.66297 12740 ft 368 kts 265°
2026-04-28 19:33 41.54190 44.62884 13381 ft 371 kts 265°
2026-04-28 19:33 41.53976 44.59480 14008 ft 374 kts 265°
2026-04-28 19:33 41.53755 44.55964 14579 ft 377 kts 265°
2026-04-28 19:34 41.53536 44.52470 15133 ft 379 kts 265°
2026-04-28 19:34 41.53317 44.48957 15688 ft 381 kts 265°
2026-04-28 19:34 41.53096 44.45419 16225 ft 384 kts 265°
2026-04-28 19:34 41.52871 44.41857 16771 ft 386 kts 264°
2026-04-28 19:35 41.52645 44.38321 17326 ft 389 kts 264°
2026-04-28 19:35 41.52412 44.34671 17880 ft 391 kts 264°
2026-04-28 19:35 41.52183 44.31079 18416 ft 394 kts 264°
2026-04-28 19:35 41.51948 44.27422 18908 ft 396 kts 264°
2026-04-28 19:36 41.51710 44.23755 19441 ft 397 kts 263°
2026-04-28 19:36 41.51469 44.20070 19968 ft 399 kts 263°
2026-04-28 19:36 41.51225 44.16365 20472 ft 402 kts 264°
2026-04-28 19:36 41.50978 44.12645 20948 ft 404 kts 263°
2026-04-28 19:37 41.50730 44.08899 21443 ft 405 kts 264°
2026-04-28 19:37 41.50567 44.06426 21781 ft 405 kts 264°
2026-04-28 19:37 41.50232 44.01400 22360 ft 408 kts 264°
2026-04-28 19:37 41.49977 43.97604 22784 ft 411 kts 264°
2026-04-28 19:38 41.49720 43.93801 23213 ft 413 kts 264°
2026-04-28 19:38 41.49458 43.89974 23635 ft 415 kts 263°
2026-04-28 19:38 41.49193 43.86131 24006 ft 417 kts 263°
2026-04-28 19:38 41.48931 43.82323 24366 ft 418 kts 263°
2026-04-28 19:39 41.48663 43.78460 24716 ft 420 kts 263°
2026-04-28 19:39 41.48395 43.74573 25066 ft 421 kts 263°
2026-04-28 19:39 41.48125 43.70679 25420 ft 422 kts 263°
2026-04-28 19:39 41.47852 43.66771 25758 ft 424 kts 263°
2026-04-28 19:40 41.47576 43.62844 26100 ft 425 kts 263°
2026-04-28 19:40 41.47299 43.58915 26464 ft 427 kts 263°
2026-04-28 19:40 41.47019 43.54962 26863 ft 428 kts 263°
2026-04-28 19:40 41.46736 43.51011 27235 ft 429 kts 263°
2026-04-28 19:41 41.46451 43.47053 27637 ft 429 kts 263°
2026-04-28 19:41 41.46166 43.43103 28142 ft 426 kts 262°
2026-04-28 19:41 41.45881 43.39180 28647 ft 424 kts 262°
2026-04-28 19:41 41.45596 43.35260 29153 ft 422 kts 262°
2026-04-28 19:42 41.45314 43.31380 29670 ft 420 kts 262°
2026-04-28 19:42 41.45031 43.27513 30168 ft 418 kts 262°
2026-04-28 19:42 41.44748 43.23658 30572 ft 417 kts 262°
2026-04-28 19:42 41.44560 43.21119 30841 ft 416 kts 262°
2026-04-28 19:43 41.44183 43.16039 31384 ft 414 kts 262°
2026-04-28 19:43 41.43897 43.12219 31791 ft 413 kts 262°
2026-04-28 19:43 41.43613 43.08415 32191 ft 412 kts 262°
2026-04-28 19:43 41.43328 43.04619 32611 ft 411 kts 262°
2026-04-28 19:44 41.43038 43.00828 33031 ft 411 kts 261°
2026-04-28 19:44 41.42739 42.97047 33424 ft 410 kts 260°
2026-04-28 19:44 41.42361 42.93297 33851 ft 408 kts 259°
2026-04-28 19:44 41.41914 42.89570 34225 ft 407 kts 257°
2026-04-28 19:45 41.41431 42.85867 34566 ft 406 kts 257°
2026-04-28 19:45 41.40939 42.82174 34885 ft 405 kts 257°
2026-04-28 19:45 41.40457 42.78486 35189 ft 404 kts 257°
2026-04-28 19:45 41.39990 42.74795 35495 ft 403 kts 258°
2026-04-28 19:46 41.39533 42.71112 35798 ft 403 kts 258°
2026-04-28 19:46 41.39081 42.67429 36024 ft 403 kts 258°
2026-04-28 19:46 41.38170 42.59975 36072 ft 414 kts 258°
2026-04-28 19:47 41.37216 42.52289 36084 ft 427 kts 258°
2026-04-28 19:47 41.36235 42.44413 36080 ft 434 kts 258°
2026-04-28 19:48 41.35245 42.36486 36076 ft 434 kts 258°
2026-04-28 19:48 41.34242 42.28564 36086 ft 434 kts 258°
2026-04-28 19:49 41.33226 42.20636 36089 ft 434 kts 258°
2026-04-28 19:49 41.32216 42.12716 36100 ft 434 kts 258°
2026-04-28 19:50 41.30683 42.00828 36124 ft 435 kts 258°
2026-04-28 19:51 41.29646 41.92906 36121 ft 435 kts 258°
2026-04-28 19:51 41.28608 41.85037 36157 ft 435 kts 258°
2026-04-28 19:52 41.27557 41.77120 36158 ft 435 kts 258°
2026-04-28 19:52 41.26510 41.69220 36145 ft 434 kts 258°
2026-04-28 19:53 41.25459 41.61314 36158 ft 434 kts 258°
2026-04-28 19:53 41.24568 41.54701 36146 ft 434 kts 258°
2026-04-28 19:54 41.23506 41.46852 36145 ft 434 kts 258°
2026-04-28 19:54 41.22436 41.38947 36143 ft 434 kts 258°
2026-04-28 19:55 41.21360 41.31048 36145 ft 435 kts 258°
2026-04-28 19:55 41.20273 41.23157 36156 ft 434 kts 258°
2026-04-28 19:56 41.19180 41.15264 36166 ft 435 kts 258°
2026-04-28 19:56 41.18084 41.07377 36168 ft 435 kts 258°
2026-04-28 19:57 41.16979 40.99485 36168 ft 435 kts 258°
2026-04-28 19:57 41.15875 40.91592 36169 ft 435 kts 258°
2026-04-28 19:58 41.14766 40.83704 36174 ft 435 kts 258°
2026-04-28 19:58 41.13645 40.75816 36170 ft 435 kts 258°
2026-04-28 19:59 41.12519 40.67931 36182 ft 435 kts 257°
2026-04-28 19:59 41.11398 40.60047 36179 ft 434 kts 257°
2026-04-28 20:00 41.10272 40.52226 36173 ft 434 kts 257°
2026-04-28 20:00 41.09125 40.44361 36166 ft 434 kts 257°
2026-04-28 20:01 41.07984 40.36511 36163 ft 434 kts 257°
2026-04-28 20:01 41.06837 40.28636 36157 ft 434 kts 257°
2026-04-28 20:02 41.05694 40.20843 36158 ft 434 kts 257°
2026-04-28 20:02 41.04535 40.13000 36161 ft 434 kts 257°
2026-04-28 20:03 41.03369 40.05162 36177 ft 433 kts 257°
2026-04-28 20:03 41.02205 39.97325 36179 ft 433 kts 257°
2026-04-28 20:04 41.01031 39.89492 36179 ft 433 kts 257°
2026-04-28 20:04 40.99894 39.81661 36180 ft 434 kts 262°
2026-04-28 20:05 41.00087 39.73659 36174 ft 437 kts 275°
2026-04-28 20:05 41.00865 39.65718 36174 ft 438 kts 275°
2026-04-28 20:06 41.01645 39.57671 36184 ft 438 kts 275°
2026-04-28 20:06 41.02398 39.49678 36178 ft 438 kts 275°
2026-04-28 20:07 41.03142 39.41725 36166 ft 438 kts 275°
2026-04-28 20:07 41.03895 39.33726 36155 ft 438 kts 275°
2026-04-28 20:08 41.04636 39.25722 36152 ft 437 kts 274°
2026-04-28 20:08 41.05367 39.17721 36151 ft 437 kts 274°
2026-04-28 20:09 41.06099 39.09715 36151 ft 437 kts 275°
2026-04-28 20:09 41.06844 39.01706 36148 ft 437 kts 275°
2026-04-28 20:10 41.07584 38.93701 36147 ft 438 kts 275°
2026-04-28 20:10 41.08314 38.85699 36161 ft 437 kts 275°
2026-04-28 20:11 41.09038 38.77692 36155 ft 437 kts 275°
2026-04-28 20:11 41.09747 38.69685 36159 ft 437 kts 274°
2026-04-28 20:12 41.10449 38.61667 36158 ft 437 kts 274°
2026-04-28 20:12 41.11130 38.53665 36160 ft 437 kts 274°
2026-04-28 20:13 41.11799 38.45657 36174 ft 437 kts 274°
2026-04-28 20:13 41.12465 38.37640 36169 ft 437 kts 274°
2026-04-28 20:14 41.13119 38.29643 36160 ft 436 kts 274°
2026-04-28 20:14 41.13770 38.21637 36159 ft 436 kts 274°
2026-04-28 20:15 41.14422 38.13637 36152 ft 436 kts 274°
2026-04-28 20:15 41.15078 38.05634 36161 ft 436 kts 274°
2026-04-28 20:16 41.15720 37.97632 36156 ft 436 kts 274°
2026-04-28 20:16 41.16350 37.89631 36157 ft 436 kts 274°
2026-04-28 20:17 41.17003 37.81629 36155 ft 436 kts 274°
2026-04-28 20:17 41.17690 37.73679 36164 ft 436 kts 274°
2026-04-28 20:18 41.18384 37.65679 36163 ft 436 kts 274°
2026-04-28 20:18 41.19002 37.57672 36160 ft 436 kts 272°
2026-04-28 20:19 41.19448 37.49646 36161 ft 436 kts 272°
2026-04-28 20:19 41.19999 37.41626 36153 ft 436 kts 274°
2026-04-28 20:20 41.20616 37.33609 36160 ft 436 kts 274°
2026-04-28 20:20 41.21226 37.25591 36149 ft 437 kts 274°
2026-04-28 20:21 41.21825 37.17564 36160 ft 437 kts 274°
2026-04-28 20:21 41.22452 37.09547 36167 ft 437 kts 274°
2026-04-28 20:22 41.23084 37.01517 36166 ft 437 kts 274°
2026-04-28 20:22 41.23694 36.93489 36174 ft 437 kts 274°
2026-04-28 20:23 41.24293 36.85456 36168 ft 437 kts 274°
2026-04-28 20:23 41.24896 36.77412 36167 ft 437 kts 274°
2026-04-28 20:24 41.25495 36.69374 36160 ft 438 kts 274°
2026-04-28 20:24 41.26090 36.61319 36180 ft 438 kts 274°
2026-04-28 20:25 41.25903 36.53286 36156 ft 436 kts 257°
2026-04-28 20:25 41.23992 36.45633 36149 ft 437 kts 250°
2026-04-28 20:26 41.21898 36.38055 36145 ft 437 kts 250°
2026-04-28 20:26 41.19801 36.30467 36128 ft 438 kts 250°
2026-04-28 20:27 41.17705 36.22935 36126 ft 438 kts 250°
2026-04-28 20:27 41.15573 36.15300 36125 ft 438 kts 250°
2026-04-28 20:28 41.13452 36.07757 36109 ft 439 kts 250°
2026-04-28 20:28 41.11319 36.00165 36107 ft 439 kts 250°
2026-04-28 20:29 41.09176 35.92562 36090 ft 440 kts 250°
2026-04-28 20:29 41.06986 35.84991 36088 ft 440 kts 249°
2026-04-28 20:30 41.04742 35.77423 36065 ft 441 kts 249°
2026-04-28 20:30 41.02492 35.69864 36073 ft 441 kts 249°
2026-04-28 20:31 41.00303 35.62326 36049 ft 441 kts 250°
2026-04-28 20:31 40.98152 35.54737 35838 ft 438 kts 250°
2026-04-28 20:31 40.97083 35.50968 35321 ft 435 kts 250°
2026-04-28 20:32 40.96008 35.47202 34992 ft 430 kts 250°
2026-04-28 20:32 40.94962 35.43563 34682 ft 428 kts 250°
2026-04-28 20:32 40.93901 35.39885 34373 ft 428 kts 250°
2026-04-28 20:32 40.92841 35.36203 34064 ft 429 kts 250°
2026-04-28 20:33 40.91777 35.32513 33710 ft 429 kts 250°
2026-04-28 20:33 40.90710 35.28822 33351 ft 430 kts 250°
2026-04-28 20:33 40.89638 35.25127 33010 ft 432 kts 250°
2026-04-28 20:33 40.88557 35.21405 32654 ft 434 kts 250°
2026-04-28 20:34 40.87473 35.17672 32314 ft 436 kts 250°
2026-04-28 20:34 40.86388 35.13928 31968 ft 437 kts 250°
2026-04-28 20:34 40.85297 35.10178 31633 ft 438 kts 250°
2026-04-28 20:34 40.84198 35.06421 31284 ft 439 kts 250°
2026-04-28 20:35 40.83093 35.02648 30961 ft 441 kts 250°
2026-04-28 20:35 40.81990 34.98871 30631 ft 442 kts 250°
2026-04-28 20:35 40.81256 34.96357 30423 ft 443 kts 250°
2026-04-28 20:35 40.80146 34.92557 30092 ft 444 kts 250°
2026-04-28 20:36 40.79035 34.88760 29730 ft 445 kts 250°
2026-04-28 20:36 40.77915 34.84950 29355 ft 446 kts 250°
2026-04-28 20:36 40.76789 34.81138 28994 ft 446 kts 250°
2026-04-28 20:36 40.75655 34.77309 28623 ft 446 kts 250°
2026-04-28 20:37 40.74528 34.73500 28255 ft 445 kts 250°
2026-04-28 20:37 40.73399 34.69709 27904 ft 443 kts 250°
2026-04-28 20:37 40.72269 34.65946 27560 ft 440 kts 250°
2026-04-28 20:37 40.71137 34.62203 27214 ft 438 kts 250°
2026-04-28 20:38 40.70009 34.58485 26872 ft 436 kts 249°
2026-04-28 20:38 40.68886 34.54780 26533 ft 434 kts 250°
2026-04-28 20:38 40.67769 34.51098 26210 ft 432 kts 249°
2026-04-28 20:38 40.66654 34.47432 25882 ft 429 kts 249°
2026-04-28 20:39 40.65542 34.43782 25555 ft 428 kts 249°
2026-04-28 20:39 40.64453 34.40201 25231 ft 426 kts 249°
2026-04-28 20:39 40.63352 34.36585 24920 ft 424 kts 249°
2026-04-28 20:39 40.62255 34.32987 24600 ft 422 kts 249°
2026-04-28 20:40 40.61161 34.29407 24291 ft 421 kts 249°
2026-04-28 20:40 40.60067 34.25836 23990 ft 419 kts 249°
2026-04-28 20:40 40.58978 34.22289 23684 ft 417 kts 249°
2026-04-28 20:40 40.57895 34.18764 23337 ft 415 kts 249°
2026-04-28 20:41 40.56816 34.15253 22989 ft 413 kts 249°
2026-04-28 20:41 40.55741 34.11756 22631 ft 412 kts 249°
2026-04-28 20:41 40.54671 34.08272 22280 ft 410 kts 249°
2026-04-28 20:41 40.53603 34.04806 21930 ft 408 kts 249°
2026-04-28 20:42 40.52538 34.01358 21595 ft 406 kts 249°
2026-04-28 20:42 40.51479 33.97934 21258 ft 404 kts 249°
2026-04-28 20:42 40.50422 33.94520 20926 ft 402 kts 249°
2026-04-28 20:42 40.49442 33.91089 20606 ft 400 kts 252°
2026-04-28 20:43 40.48557 33.87636 20272 ft 398 kts 253°
2026-04-28 20:43 40.47728 33.84177 19950 ft 396 kts 254°
2026-04-28 20:43 40.46919 33.80726 19627 ft 394 kts 254°
2026-04-28 20:43 40.46105 33.77291 19316 ft 393 kts 254°
2026-04-28 20:44 40.45119 33.73961 19006 ft 392 kts 245°
2026-04-28 20:44 40.43724 33.70891 18692 ft 392 kts 236°
2026-04-28 20:44 40.41963 33.68169 18381 ft 392 kts 226°
2026-04-28 20:44 40.39896 33.65837 18053 ft 392 kts 219°
2026-04-28 20:45 40.37738 33.63681 17701 ft 390 kts 219°
2026-04-28 20:45 40.35587 33.61523 17343 ft 387 kts 219°
2026-04-28 20:45 40.33454 33.59381 17005 ft 385 kts 219°
2026-04-28 20:45 40.31335 33.57251 16674 ft 383 kts 219°
2026-04-28 20:46 40.29223 33.55132 16339 ft 380 kts 219°
2026-04-28 20:46 40.27126 33.53033 16009 ft 378 kts 219°
2026-04-28 20:46 40.25039 33.50946 15683 ft 376 kts 219°
2026-04-28 20:46 40.22959 33.48866 15362 ft 374 kts 219°
2026-04-28 20:47 40.20900 33.46810 15040 ft 372 kts 219°
2026-04-28 20:47 40.18849 33.44766 14723 ft 370 kts 219°
2026-04-28 20:47 40.16841 33.42739 14415 ft 368 kts 220°
2026-04-28 20:47 40.14879 33.40605 14113 ft 366 kts 222°
2026-04-28 20:48 40.12971 33.38422 13793 ft 364 kts 223°
2026-04-28 20:48 40.11089 33.36226 13455 ft 362 kts 223°
2026-04-28 20:48 40.09222 33.34042 13113 ft 359 kts 223°
2026-04-28 20:48 40.07363 33.31880 12770 ft 357 kts 223°
2026-04-28 20:49 40.05516 33.29756 12418 ft 349 kts 223°
2026-04-28 20:49 40.03716 33.27692 12065 ft 339 kts 224°
2026-04-28 20:49 40.02151 33.25452 11709 ft 331 kts 234°
2026-04-28 20:49 40.00929 33.22950 11354 ft 323 kts 242°
2026-04-28 20:50 39.99854 33.20400 11008 ft 319 kts 242°
2026-04-28 20:50 39.98795 33.17907 10872 ft 308 kts 242°
2026-04-28 20:50 39.97774 33.15510 10743 ft 297 kts 242°
2026-04-28 20:50 39.96779 33.13170 10446 ft 294 kts 242°
2026-04-28 20:51 39.95792 33.10854 10136 ft 291 kts 241°
2026-04-28 20:51 39.94815 33.08563 9809 ft 288 kts 241°
2026-04-28 20:51 39.93842 33.06279 9466 ft 286 kts 241°
2026-04-28 20:51 39.93201 33.04773 9249 ft 285 kts 241°
2026-04-28 20:52 39.91997 33.01750 8796 ft 281 kts 251°
2026-04-28 20:52 39.91679 32.99275 8457 ft 269 kts 271°
2026-04-28 20:52 39.92014 32.96961 8134 ft 259 kts 290°
2026-04-28 20:52 39.92889 32.94959 7811 ft 251 kts 306°
2026-04-28 20:53 39.94904 32.91415 7130 ft 237 kts 306°
2026-04-28 20:53 39.95874 32.89688 6763 ft 237 kts 306°
2026-04-28 20:53 39.96914 32.88006 6323 ft 243 kts 321°
2026-04-28 20:54 39.98449 32.87164 6077 ft 240 kts 355°
2026-04-28 20:54 40.00047 32.87568 5857 ft 236 kts 28°
2026-04-28 20:54 40.01394 32.88766 5572 ft 232 kts 36°
2026-04-28 20:54 40.02655 32.89991 5281 ft 220 kts 36°
2026-04-28 20:55 40.03857 32.91142 5016 ft 207 kts 36°
2026-04-28 20:55 40.04979 32.92208 4740 ft 192 kts 36°
2026-04-28 20:55 40.06001 32.93178 4513 ft 169 kts 35°
2026-04-28 20:55 40.06906 32.94038 4271 ft 156 kts 36°
2026-04-28 20:56 40.07763 32.94853 4056 ft 150 kts 36°
2026-04-28 20:56 40.08599 32.95647 3833 ft 147 kts 36°
2026-04-28 20:56 40.09423 32.96430 3617 ft 146 kts 37°
2026-04-28 20:56 40.10242 32.97204 3397 ft 144 kts 37°
2026-04-28 20:57 40.11054 32.97981 3246 ft 145 kts 37°
2026-04-28 20:57 40.11866 32.98752 3122 ft 140 kts 37°
2026-04-28 20:57 40.12527 32.99388 3120 ft 93 kts 36°
2026-04-28 20:57 40.12904 32.99749 3122 ft 30 kts 36°
2026-04-28 20:58 40.13019 32.99915 3125 ft 22 kts 54°
2026-04-28 20:58 40.13076 33.00068 3126 ft 14 kts 67°
2026-04-28 20:58 40.13071 33.00168 3126 ft 12 kts 141°
2026-04-28 20:58 40.12991 33.00135 3124 ft 14 kts 216°
2026-04-28 20:59 40.12906 33.00053 3124 ft 17 kts 216°
2026-04-28 20:59 40.12804 32.99957 3122 ft 19 kts 216°
2026-04-28 20:59 40.12696 32.99855 3123 ft 19 kts 216°
2026-04-28 20:59 40.12587 32.99751 3122 ft 19 kts 216°
2026-04-28 21:00 40.12491 32.99660 3121 ft 18 kts 219°
2026-04-28 21:00 40.12385 32.99558 3120 ft 19 kts 216°
2026-04-28 21:00 40.12278 32.99455 3119 ft 19 kts 216°
2026-04-28 21:00 40.12171 32.99352 3118 ft 20 kts 216°
2026-04-28 21:01 40.12050 32.99237 3116 ft 23 kts 216°
2026-04-28 21:01 40.11916 32.99110 3114 ft 20 kts 216°
2026-04-28 21:01 40.11836 32.99038 3114 ft 12 kts 199°
2026-04-28 21:01 40.11777 32.99111 3113 ft 14 kts 96°
2026-04-28 21:02 40.11809 32.99214 3113 ft 10 kts 68°
2026-04-28 21:02 40.11832 32.99254 3113 ft 4 kts
2026-04-28 21:02 40.11863 32.99242 3113 ft 5 kts 341°
2026-04-28 21:02 40.11888 32.99231 3113 ft 3 kts 339°
2026-04-28 21:03 40.11900 32.99226 3113 ft 0 kts 341°